Location: *
(50.8512°N, 5.6907°E)
Time: 02:45:27
(UTC+00:00)

FALCON 9 DEB - Pass Details

Date: 09 April 2020
Orbit: 429 x 441 km, 53.0° (Epoch: 23 May)

Event Time Altitude Azimuth Distance (km) Brightness Sun altitude
Rises 19:26:35 0° 226° (SW) 2,423 7.2 -10.1°
Reaches altitude 10° 19:28:46 10° 219° (SW) 1,556 6.1 -10.5°
Maximum altitude 19:32:04 40° 148° (SSE) 665 3.6 -10.9°
Enters shadow 19:35:01 12° 80° (E) 1,425 5.3 -11.3°
